SCP
-0 -0 -0 -0 -0 0 -0 -0 -0 -0 -0 0 0 0 0 -0 -0 -0 0 0 0 0 0 0 0 0 0 0 0 0 0 0 0 0 0 0 0 0 0 0 0 0 0 0 0 0 0
0 0 0 0 0 0 0 0 0 0 0 0 0 0 0 0 0 0 0 0 0 0 0 0 0 0 0 0 0 0 0 0 0 0 0 0 0 0 0 0 0 0 0 0 0 0 0
0 0 0 0 0 0 0 0 0 0 0 0 0 0 0 0 0 0 0 0 0 -0 0 0 0 0 0 0 0 0 0 0 0 0 0 0 0 0 0 0 0 0 0 0 0 0 0
-0 0 0 0 0 0 0 0 0 0 0 0 0 0 0 0 0 0 0 0 0 0 0 0 0 0 0 0 0 0 0 0 0 0 0 0 0 0 0 0 0 0 0 0 0 0 0
-0 0 0 0 0 0 0 0 0 0 0 0 0 0 0 0 0 0 0 0 0 0 0 0 0 0 0 0 0 0 0 0 0 0 0 0 0 0 0 0 0 0 0 0 0 0 0
-0 0 0 0 0 0 0 0 0 0 0 0 0 0 0 0 0 0 0 0 -0 -0 0 0 0 0 0 0 0 0 0 0 0 0 0 0 0 0 0 0 0 0 0 0 0 0 0
0 0 0 0 0 0 0 0 0 0 0 0 0 0 0 0 0 0 0 -0 0 -0 0 0 0 0 0 0 0 0 0 0 0 0 0 0 0 0 0 0 0 0 0 0 0 0 0
0 0 0 0 0 0 0 0 0 0 0 0 0 0 0 0 0 -0 -0 -0 0 0 0 0 0 0 0 0 0 0 0 0 0 0 0 0 0 0 0 0 0 0 0 0 0 0 0
0 0 0 0 0 0 0 0 0 0 0 0 0 0 0 0 0 -0 0 0 -0 0 -0 0 0 0 0 0 0 0 0 0 0 0 0 0 0 0 0 0 0 0 0 0 0 0 0
0 0 0 0 0 0 0 0 0 0 0 0 0 0 0 0 -0 0 0 0 0 0 -0 0 0 0 0 0 0 0 0 0 0 0 0 0 0 0 0 0 0 0 0 0 0 0 0
0 0 0 0 0 0 0 0 0 0 0 0 0 0 0 0 0 0 0 0 0 0 0 0 0 0 0 0 0 0 0 0 0 0 0 0 0 0 0 -0 0 0 0 0 0 0 0
0 0 0 0 0 0 0 0 0 0 0 0 0 0 0 0 0 0 0 0 0 0 0 0 0 0 0 0 0 0 0 0 0 0 0 0 0 0 0 0 0 0 0 0 0 0 0
0 0 0 0 0 0 0 0 0 0 0 0 0 0 0 0 0 0 0 0 0 0 0 0 0 0 0 0 0 0 0 0 0 0 0 0 0 0 0 0 0 0 0 0 0 0 0
0 0 0 0 0 0 0 0 0 0 0 0 0 0 0 0 0 0 0 0 0 0 0 0 0 0 0 0 0 0 0 0 0 0 0 0 0 0 0 0 0 0 0 0 0 0 0
0 0 0 0 0 0 0 0 0 0 0 0 0 0 0 0 0 0 0 0 0 0 0 0 0 0 0 0 0 0 0 0 0 0 0 0 0 0 0 0 0 0 0 0 0 0 0
0 0 0 0 0 0 0 0 0 0 0 0 0 0 -0 0 0 0 0 0 0 0 0 0 0 0 0 0 0 0 0 0 0 0 0 0 0 0 0 0 0 0 0 0 0 0 0
0 0 0 0 0 0 0 0 0 0 0 0 0 0 0 0 0 0 -0 0 0 0 0 0 0 0 0 0 0 0 0 0 0 0 0 0 0 0 0 0 0 0 0 0 0 0 0
0 0 0 0 0 0 0 0 0 0 0 0 0 0 0 0 0 -0 0 0 0 0 0 0 0 0 0 0 0 0 0 0 0 0 0 0 0 0 0 0 0 0 0 0 0 0 0
0 0 0 0 0 0 0 0 0 0 0 0 0 0 0 -0 0 0 0 0 0 -0 -0 0 0 0 0 0 0 0 0 0 0 0 0 0 0 0 0 0 0 0 0 0 0 0 0
0 0 0 0 0 0 -0 -0 0 0 0 0 0 0 0 0 0 0 0 0 0 0 0 0 0 0 0 0 0 0 0 0 0 0 -0 -0 -0 0 0 0 0 0 0 0 0 0 0
0 0 0 -0 -0 -0 -0 -0 -0 0 0 0 0 0 0 0 0 0 0 0 0 0 0 0 0 0 0 0 0 0 0 0 0 0 0 -0 -0 -0 0 0 0 -0 0 0 0 0 0
0 0 -0 -0 -0 -0 -0 -0 -0 0 0 0 0 0 0 0 0 0 0 0 0 0 0 0 0 0 -0 0 0 0 0 0 0 0 0 0 0 0 0 0 0 0 0 0 0 0 0
0 -0 -0 -0 -0 -0 -0 -0 0 0 0 0 0 0 0 0 0 0 0 0 0 0 0 0 0 0 0 0 0 0 0 0 0 0 0 0 0 0 0 0 -0 0 0 0 0 0 0
-0 -0 -0 -0 -0 -0 0 0 0 0 0 0 0 0 0 0 0 0 -0 0 0 -0 0 0 0 0 0 0 0 0 0 0 0 0 0 0 0 0 0 0 0 0 0 0 0 0 0
-0 -0 -0 0 0 0 0 0 0 0 0 0 0 0 0 0 0 0 0 0 -0 -0 0 0 0 0 0 0 0 0 0 0 0 0 0 0 0 0 0 0 0 0 0 0 0 0 0
0 0 0 0 0 0 0 0 0 0 0 0 0 0 0 0 0 0 0 0 0 0 0 0 0 0 0 0 0 0 0 0 0 0 0 0 0 0 0 0 0 0 0 0 0 0 0
0 0 0 0 0 0 0 0 0 0 0 0 0 0 0 0 0 0 0 0 0 0 0 0 0 0 0 0 0 0 0 0 0 0 0 0 0 0 0 0 0 0 0 0 0 0 0
0 0 0 0 0 0 0 0 0 0 0 0 0 0 0 0 0 0 0 0 0 0 0 0 0 0 0 0 0 0 -0 0 0 0 0 0 0 0 0 0 0 0 0 0 0 0 0
0 0 0 0 0 0 0 0 0 0 0 0 0 0 0 0 0 0 0 0 0 0 0 0 0 0 0 0 0 0 0 0 0 0 0 0 0 0 0 0 0 0 0 0 0 0 0
Wind_Speed_500mb
28 30 32 35 37 39 40 42 45 48 50 52 54 55 57 57 57 59 60 59 56 56 54 51 46 39 35 23 46 48 33 27 32 43 43 43 45 46 29 30 45 44 41 42 38 41 43
31 33 34 35 36 40 44 47 49 51 53 53 55 58 60 61 64 63 60 58 54 52 51 49 45 40 28 36 35 39 33 37 37 43 40 42 28 46 23 38 33 18 40 46 43 41 33
33 36 38 42 45 46 47 48 49 50 51 55 58 59 60 61 64 67 66 60 54 50 46 44 42 36 31 56 33 28 32 33 36 37 32 38 41 23 14 25 43 29 30 31 39 47 34
36 38 40 41 44 45 47 50 53 55 56 60 62 66 71 70 68 69 70 60 57 54 46 38 31 19 24 23 44 45 34 28 33 29 29 25 29 33 36 15 9 20 31 28 18 35 21
36 38 40 41 44 46 48 49 51 53 55 58 61 65 67 70 72 72 68 56 54 39 25 14 6 17 15 17 19 26 28 22 21 22 19 15 21 29 20 27 25 29 29 39 33 21 16
37 39 42 46 48 50 52 55 56 58 58 62 66 66 68 66 64 65 62 53 32 26 18 7 6 12 17 4 5 12 24 25 17 21 13 20 20 20 25 29 30 31 43 38 33 19 26
38 43 47 50 52 53 53 54 56 57 57 61 64 63 65 65 66 50 65 35 21 7 14 19 24 29 12 7 7 9 20 27 19 28 23 34 20 31 48 44 47 45 47 42 28 24 20
40 45 48 49 50 51 51 52 53 55 57 62 65 67 64 61 53 49 40 17 13 21 30 41 49 46 51 32 12 15 20 25 23 28 30 19 38 41 39 38 39 43 50 48 40 36 30
47 48 49 50 49 49 50 54 55 56 59 62 65 70 70 65 33 42 25 30 27 21 16 15 11 9 5 20 18 36 33 25 30 33 39 44 33 6 31 43 49 46 49 44 46 35 25
46 47 45 46 46 47 50 54 58 60 63 65 68 67 69 67 17 46 14 38 32 15 12 8 7 5 6 5 9 14 24 26 22 30 37 35 43 49 47 39 38 43 39 41 37 24 29
47 46 45 46 49 48 47 50 56 60 60 66 69 65 65 54 42 31 33 34 26 10 15 8 10 10 9 12 3 14 17 22 24 21 12 13 19 16 33 50 36 35 14 24 28 29 31
44 44 46 47 49 49 47 51 55 57 58 65 67 60 61 53 35 29 36 26 12 9 18 5 6 6 9 19 13 11 16 16 6 25 35 44 18 11 29 16 21 1 13 11 14 20 20
42 44 48 47 46 48 48 45 50 57 59 62 63 62 58 58 25 35 25 11 10 12 1 3 3 4 8 10 13 20 23 23 19 11 27 33 49 40 30 23 13 26 21 10 17 16 19
44 42 47 46 47 49 45 50 50 50 55 59 64 65 58 36 22 19 16 10 18 18 22 13 11 24 18 14 18 23 17 33 40 39 25 20 25 38 38 42 28 44 39 20 23 28 29
42 43 43 44 47 49 46 49 50 53 57 63 64 58 40 17 23 15 12 14 12 24 17 27 36 23 30 9 11 12 31 39 36 41 26 21 35 10 18 25 29 32 39 47 46 46 28
39 43 42 44 45 46 49 48 48 54 56 59 53 40 19 15 19 12 10 24 24 19 26 21 23 26 43 39 29 21 23 11 16 26 28 31 41 35 20 12 26 33 10 21 22 27 45
41 41 42 43 44 46 49 48 50 52 53 55 34 23 9 14 30 21 6 18 30 26 31 19 35 46 47 46 43 42 37 31 20 18 19 26 29 36 10 22 33 20 23 24 22 30 26
39 41 41 44 48 41 44 47 50 50 52 45 23 6 25 38 12 9 12 22 17 30 45 43 43 42 44 44 37 44 52 43 30 26 26 28 14 33 45 12 9 17 20 39 25 41 25
41 41 42 43 40 42 40 45 45 47 51 46 26 22 14 3 9 19 25 30 30 36 37 18 25 40 37 34 24 25 24 45 30 21 13 19 15 29 40 32 28 21 28 24 15 3 13
39 40 37 34 36 39 42 40 41 42 44 40 14 8 8 11 20 28 32 27 36 46 36 35 40 42 38 34 33 16 43 20 21 36 28 23 9 25 20 28 25 19 43 43 34 12 23
36 35 35 37 38 40 41 38 35 40 38 30 8 5 15 13 28 24 36 37 45 47 53 48 14 23 41 34 39 38 33 41 43 60 26 8 16 20 22 25 22 19 34 32 33 33 22
33 32 32 34 35 35 35 34 31 36 34 10 6 8 15 34 25 34 30 30 39 35 37 38 32 35 41 33 36 41 36 28 21 22 23 8 18 17 23 22 21 17 19 28 20 21 16
31 33 34 34 33 32 33 30 32 29 27 10 11 17 13 21 24 27 25 36 46 43 35 37 31 26 33 37 40 39 44 50 34 30 33 10 4 6 12 19 17 18 13 13 9 21 13
35 35 35 36 37 36 35 33 29 26 22 20 16 18 8 15 20 27 42 47 38 44 39 46 40 27 35 56 53 46 46 46 34 37 32 20 10 5 12 12 20 12 22 23 32 25 22
33 36 38 39 39 37 35 34 32 28 25 26 24 13 9 14 31 37 34 38 56 49 29 30 45 28 27 20 13 20 14 8 14 23 22 15 6 6 8 15 3 6 19 15 14 16 25
34 37 37 37 37 38 37 34 32 30 26 24 23 20 17 12 7 50 39 43 27 18 24 29 23 28 11 6 9 10 10 15 3 6 8 4 5 10 12 15 11 13 34 37 23 7 25
37 37 38 39 41 40 38 36 35 32 30 28 27 22 18 20 23 23 11 15 18 17 16 30 18 19 7 6 12 9 13 2 6 6 4 4 6 20 21 15 9 31 38 33 8 11 27
39 39 40 42 45 46 40 38 39 38 35 29 36 26 22 15 35 19 25 11 19 13 11 27 20 1 6 8 7 9 6 2 3 9 9 9 11 9 10 10 5 62 15 12 15 24 24
39 40 41 41 42 48 40 40 41 41 30 22 31 23 25 23 21 28 8 12 13 12 17 14 15 30 11 8 9 9 7 8 10 4 17 4 10 7 11 7 16 30 33 29 27 25 29
Wind_Direction_500mb
354 352 349 348 346 342 340 339 336 334 332 330 327 326 325 324 321 318 316 313 309 302 296 289 286 285 290 255 250 267 257 227 202 193 192 192 195 202 219 230 230 226 245 252 252 258 250
352 349 346 342 341 341 340 337 333 334 336 334 331 329 326 325 321 317 315 313 310 301 294 289 284 283 263 249 256 253 244 223 212 201 204 207 217 221 267 248 228 222 247 254 248 252 242
350 348 346 345 343 341 338 337 338 338 336 332 330 327 325 325 323 320 320 320 314 306 296 286 280 272 244 246 260 249 233 226 216 211 214 218 225 215 231 253 243 254 262 259 246 242 238
353 351 348 347 345 342 340 340 339 338 337 336 335 333 331 331 331 327 324 327 317 309 299 288 273 230 249 252 247 248 235 220 219 213 216 226 221 232 244 259 241 237 237 256 246 226 217
353 351 349 346 343 341 340 339 339 339 338 338 336 336 337 338 335 332 328 333 321 318 316 300 232 206 258 263 248 239 211 214 209 206 209 213 199 220 208 233 250 230 256 237 254 200 186
351 348 344 342 345 345 345 344 344 342 342 341 341 341 337 341 337 336 338 341 328 331 343 334 219 236 240 273 217 212 199 196 189 185 182 199 209 219 220 220 227 234 237 237 258 205 218
347 345 345 347 347 346 347 347 346 347 346 345 345 343 341 345 341 345 348 1 355 256 313 263 274 260 270 314 255 202 184 183 186 196 208 198 216 218 230 231 248 267 280 278 244 221 219
343 343 343 344 344 346 349 349 349 350 347 348 348 347 343 345 346 350 3 41 23 308 298 285 267 261 254 268 270 202 175 193 202 218 216 201 235 244 248 257 256 261 260 265 268 271 258
342 342 342 343 345 348 348 348 348 346 347 348 347 348 345 342 347 355 357 3 345 328 274 286 234 242 224 197 231 242 206 223 235 243 236 234 245 226 247 254 255 248 256 261 263 267 238
341 342 341 342 342 341 341 342 344 345 345 345 345 349 346 341 0 343 338 335 334 327 285 177 175 158 163 211 239 210 215 208 215 243 245 256 262 253 249 252 248 256 253 256 259 258 251
340 340 340 340 339 340 340 339 336 337 340 340 341 345 345 346 327 334 323 331 329 323 302 117 157 166 178 216 341 189 188 208 239 215 226 230 230 227 230 240 245 257 328 252 240 248 260
341 340 340 339 338 338 338 337 335 336 334 336 337 345 345 343 320 303 325 324 326 247 248 154 155 206 225 201 202 162 188 207 250 256 245 254 252 251 238 251 247 139 209 204 222 228 239
340 338 334 335 335 336 335 331 329 332 335 335 332 340 342 334 304 307 318 322 262 229 101 131 285 298 274 245 223 205 196 197 208 212 226 237 240 230 228 237 204 198 203 220 218 205 244
334 338 336 340 338 339 336 330 328 332 332 329 326 332 337 331 333 335 331 248 246 275 286 30 327 301 257 293 240 230 252 239 224 245 270 264 262 208 204 220 205 206 210 217 237 234 244
334 334 334 334 337 339 335 331 334 329 328 327 328 333 331 352 5 356 300 243 287 10 357 337 316 265 280 218 266 260 246 256 251 221 225 245 246 130 196 213 223 228 217 237 261 271 277
336 334 340 340 339 338 336 337 338 335 337 335 334 330 315 336 355 337 259 250 295 352 331 310 288 294 287 291 288 263 271 320 262 268 260 267 268 248 193 218 242 242 258 206 215 236 239
337 340 341 337 338 338 340 340 338 339 340 342 345 335 325 312 328 290 248 274 305 308 321 313 308 303 294 293 291 282 277 286 285 299 276 270 258 263 184 212 232 206 233 236 262 230 250
339 338 339 339 346 356 350 347 344 342 341 348 339 310 308 304 297 254 278 320 327 299 303 297 293 289 291 302 296 289 283 281 352 321 301 284 296 256 250 252 345 301 274 245 238 240 242
339 340 337 340 346 344 345 344 347 348 345 344 331 298 359 37 302 311 295 302 299 291 292 297 302 302 306 307 307 299 342 337 343 358 337 5 276 268 261 258 223 233 251 249 254 177 241
345 345 345 349 341 338 338 338 345 343 340 350 337 308 301 318 303 294 301 305 301 300 295 289 305 302 296 292 292 292 304 300 272 281 288 272 239 296 292 301 318 289 250 243 226 250 258
353 356 352 346 341 339 340 340 338 341 340 351 354 335 326 305 319 331 317 301 296 290 305 296 286 278 290 299 307 298 308 314 306 295 282 272 276 295 300 335 330 294 290 241 224 233 239
357 350 345 343 344 343 347 348 342 339 345 357 341 328 335 297 290 304 312 309 305 304 315 293 274 290 288 293 291 294 307 299 307 328 312 225 275 285 292 305 296 292 294 312 298 265 240
1 2 5 2 359 1 356 351 346 345 348 327 304 318 298 297 308 311 306 314 307 313 314 274 290 302 302 291 310 295 290 280 262 265 273 273 273 271 269 266 282 264 307 304 53 41 345
5 6 4 2 360 355 348 344 338 336 336 323 309 308 264 286 302 305 312 304 311 314 305 302 290 285 287 309 303 288 268 257 257 256 253 248 253 250 283 277 255 55 36 66 86 50 41
3 3 2 0 355 349 344 341 338 334 330 320 305 284 265 289 305 301 321 313 305 299 294 302 299 299 307 322 299 296 286 254 247 236 238 229 255 272 252 276 128 102 28 11 359 54 24
358 359 355 350 346 344 342 342 343 341 330 310 295 286 273 292 266 317 307 304 300 319 316 326 313 301 301 268 266 267 295 301 239 108 64 122 276 254 281 284 287 30 333 331 313 126 21
350 344 342 341 338 337 331 330 328 323 317 310 289 289 264 261 284 329 322 322 310 316 293 309 346 299 213 264 278 254 279 334 316 352 351 181 220 232 258 259 93 347 314 309 220 27 12
345 341 337 336 335 334 328 327 327 320 301 292 289 289 262 270 291 292 314 328 333 347 314 328 318 142 278 264 285 324 299 42 59 47 7 25 331 24 315 298 141 355 17 37 345 26 16
346 345 344 341 342 347 345 339 335 335 327 291 287 291 279 267 275 294 294 342 349 334 308 309 293 293 325 321 351 319 326 354 17 79 28 63 10 9 16 77 54 29 39 35 27 25 17
Wind_Speed_850mb
28 30 32 35 37 39 40 42 45 48 50 52 54 55 57 57 57 59 60 59 56 56 54 51 46 39 35 23 46 48 33 27 32 43 43 43 45 46 29 30 45 44 41 42 38 41 43
31 33 34 35 36 40 44 47 49 51 53 53 55 58 60 61 64 63 60 58 54 52 51 49 45 40 28 36 35 39 33 37 37 43 40 42 28 46 23 38 33 18 40 46 43 41 33
33 36 38 42 45 46 47 48 49 50 51 55 58 59 60 61 64 67 66 60 54 50 46 44 42 36 31 56 33 28 32 33 36 37 32 38 41 23 14 25 43 29 30 31 39 47 34
36 38 40 41 44 45 47 50 53 55 56 60 62 66 71 70 68 69 70 60 57 54 46 38 31 19 24 23 44 45 34 28 33 29 29 25 29 33 36 15 9 20 31 28 18 35 21
36 38 40 41 44 46 48 49 51 53 55 58 61 65 67 70 72 72 68 56 54 39 25 14 6 17 15 17 19 26 28 22 21 22 19 15 21 29 20 27 25 29 29 39 33 21 16
37 39 42 46 48 50 52 55 56 58 58 62 66 66 68 66 64 65 62 53 32 26 18 7 6 12 17 4 5 12 24 25 17 21 13 20 20 20 25 29 30 31 43 38 33 19 26
38 43 47 50 52 53 53 54 56 57 57 61 64 63 65 65 66 50 65 35 21 7 14 19 24 29 12 7 7 9 20 27 19 28 23 34 20 31 48 44 47 45 47 42 28 24 20
40 45 48 49 50 51 51 52 53 55 57 62 65 67 64 61 53 49 40 17 13 21 30 41 49 46 51 32 12 15 20 25 23 28 30 19 38 41 39 38 39 43 50 48 40 36 30
47 48 49 50 49 49 50 54 55 56 59 62 65 70 70 65 33 42 25 30 27 21 16 15 11 9 5 20 18 36 33 25 30 33 39 44 33 6 31 43 49 46 49 44 46 35 25
46 47 45 46 46 47 50 54 58 60 63 65 68 67 69 67 17 46 14 38 32 15 12 8 7 5 6 5 9 14 24 26 22 30 37 35 43 49 47 39 38 43 39 41 37 24 29
47 46 45 46 49 48 47 50 56 60 60 66 69 65 65 54 42 31 33 34 26 10 15 8 10 10 9 12 3 14 17 22 24 21 12 13 19 16 33 50 36 35 14 24 28 29 31
44 44 46 47 49 49 47 51 55 57 58 65 67 60 61 53 35 29 36 26 12 9 18 5 6 6 9 19 13 11 16 16 6 25 35 44 18 11 29 16 21 1 13 11 14 20 20
42 44 48 47 46 48 48 45 50 57 59 62 63 62 58 58 25 35 25 11 10 12 1 3 3 4 8 10 13 20 23 23 19 11 27 33 49 40 30 23 13 26 21 10 17 16 19
44 42 47 46 47 49 45 50 50 50 55 59 64 65 58 36 22 19 16 10 18 18 22 13 11 24 18 14 18 23 17 33 40 39 25 20 25 38 38 42 28 44 39 20 23 28 29
42 43 43 44 47 49 46 49 50 53 57 63 64 58 40 17 23 15 12 14 12 24 17 27 36 23 30 9 11 12 31 39 36 41 26 21 35 10 18 25 29 32 39 47 46 46 28
39 43 42 44 45 46 49 48 48 54 56 59 53 40 19 15 19 12 10 24 24 19 26 21 23 26 43 39 29 21 23 11 16 26 28 31 41 35 20 12 26 33 10 21 22 27 45
41 41 42 43 44 46 49 48 50 52 53 55 34 23 9 14 30 21 6 18 30 26 31 19 35 46 47 46 43 42 37 31 20 18 19 26 29 36 10 22 33 20 23 24 22 30 26
39 41 41 44 48 41 44 47 50 50 52 45 23 6 25 38 12 9 12 22 17 30 45 43 43 42 44 44 37 44 52 43 30 26 26 28 14 33 45 12 9 17 20 39 25 41 25
41 41 42 43 40 42 40 45 45 47 51 46 26 22 14 3 9 19 25 30 30 36 37 18 25 40 37 34 24 25 24 45 30 21 13 19 15 29 40 32 28 21 28 24 15 3 13
39 40 37 34 36 39 42 40 41 42 44 40 14 8 8 11 20 28 32 27 36 46 36 35 40 42 38 34 33 16 43 20 21 36 28 23 9 25 20 28 25 19 43 43 34 12 23
36 35 35 37 38 40 41 38 35 40 38 30 8 5 15 13 28 24 36 37 45 47 53 48 14 23 41 34 39 38 33 41 43 60 26 8 16 20 22 25 22 19 34 32 33 33 22
33 32 32 34 35 35 35 34 31 36 34 10 6 8 15 34 25 34 30 30 39 35 37 38 32 35 41 33 36 41 36 28 21 22 23 8 18 17 23 22 21 17 19 28 20 21 16
31 33 34 34 33 32 33 30 32 29 27 10 11 17 13 21 24 27 25 36 46 43 35 37 31 26 33 37 40 39 44 50 34 30 33 10 4 6 12 19 17 18 13 13 9 21 13
35 35 35 36 37 36 35 33 29 26 22 20 16 18 8 15 20 27 42 47 38 44 39 46 40 27 35 56 53 46 46 46 34 37 32 20 10 5 12 12 20 12 22 23 32 25 22
33 36 38 39 39 37 35 34 32 28 25 26 24 13 9 14 31 37 34 38 56 49 29 30 45 28 27 20 13 20 14 8 14 23 22 15 6 6 8 15 3 6 19 15 14 16 25
34 37 37 37 37 38 37 34 32 30 26 24 23 20 17 12 7 50 39 43 27 18 24 29 23 28 11 6 9 10 10 15 3 6 8 4 5 10 12 15 11 13 34 37 23 7 25
37 37 38 39 41 40 38 36 35 32 30 28 27 22 18 20 23 23 11 15 18 17 16 30 18 19 7 6 12 9 13 2 6 6 4 4 6 20 21 15 9 31 38 33 8 11 27
39 39 40 42 45 46 40 38 39 38 35 29 36 26 22 15 35 19 25 11 19 13 11 27 20 1 6 8 7 9 6 2 3 9 9 9 11 9 10 10 5 62 15 12 15 24 24
39 40 41 41 42 48 40 40 41 41 30 22 31 23 25 23 21 28 8 12 13 12 17 14 15 30 11 8 9 9 7 8 10 4 17 4 10 7 11 7 16 30 33 29 27 25 29
Wind_Direction_850mb
354 352 349 348 346 342 340 339 336 334 332 330 327 326 325 324 321 318 316 313 309 302 296 289 286 285 290 255 250 267 257 227 202 193 192 192 195 202 219 230 230 226 245 252 252 258 250
352 349 346 342 341 341 340 337 333 334 336 334 331 329 326 325 321 317 315 313 310 301 294 289 284 283 263 249 256 253 244 223 212 201 204 207 217 221 267 248 228 222 247 254 248 252 242
350 348 346 345 343 341 338 337 338 338 336 332 330 327 325 325 323 320 320 320 314 306 296 286 280 272 244 246 260 249 233 226 216 211 214 218 225 215 231 253 243 254 262 259 246 242 238
353 351 348 347 345 342 340 340 339 338 337 336 335 333 331 331 331 327 324 327 317 309 299 288 273 230 249 252 247 248 235 220 219 213 216 226 221 232 244 259 241 237 237 256 246 226 217
353 351 349 346 343 341 340 339 339 339 338 338 336 336 337 338 335 332 328 333 321 318 316 300 232 206 258 263 248 239 211 214 209 206 209 213 199 220 208 233 250 230 256 237 254 200 186
351 348 344 342 345 345 345 344 344 342 342 341 341 341 337 341 337 336 338 341 328 331 343 334 219 236 240 273 217 212 199 196 189 185 182 199 209 219 220 220 227 234 237 237 258 205 218
347 345 345 347 347 346 347 347 346 347 346 345 345 343 341 345 341 345 348 1 355 256 313 263 274 260 270 314 255 202 184 183 186 196 208 198 216 218 230 231 248 267 280 278 244 221 219
343 343 343 344 344 346 349 349 349 350 347 348 348 347 343 345 346 350 3 41 23 308 298 285 267 261 254 268 270 202 175 193 202 218 216 201 235 244 248 257 256 261 260 265 268 271 258
342 342 342 343 345 348 348 348 348 346 347 348 347 348 345 342 347 355 357 3 345 328 274 286 234 242 224 197 231 242 206 223 235 243 236 234 245 226 247 254 255 248 256 261 263 267 238
341 342 341 342 342 341 341 342 344 345 345 345 345 349 346 341 0 343 338 335 334 327 285 177 175 158 163 211 239 210 215 208 215 243 245 256 262 253 249 252 248 256 253 256 259 258 251
340 340 340 340 339 340 340 339 336 337 340 340 341 345 345 346 327 334 323 331 329 323 302 117 157 166 178 216 341 189 188 208 239 215 226 230 230 227 230 240 245 257 328 252 240 248 260
341 340 340 339 338 338 338 337 335 336 334 336 337 345 345 343 320 303 325 324 326 247 248 154 155 206 225 201 202 162 188 207 250 256 245 254 252 251 238 251 247 139 209 204 222 228 239
340 338 334 335 335 336 335 331 329 332 335 335 332 340 342 334 304 307 318 322 262 229 101 131 285 298 274 245 223 205 196 197 208 212 226 237 240 230 228 237 204 198 203 220 218 205 244
334 338 336 340 338 339 336 330 328 332 332 329 326 332 337 331 333 335 331 248 246 275 286 30 327 301 257 293 240 230 252 239 224 245 270 264 262 208 204 220 205 206 210 217 237 234 244
334 334 334 334 337 339 335 331 334 329 328 327 328 333 331 352 5 356 300 243 287 10 357 337 316 265 280 218 266 260 246 256 251 221 225 245 246 130 196 213 223 228 217 237 261 271 277
336 334 340 340 339 338 336 337 338 335 337 335 334 330 315 336 355 337 259 250 295 352 331 310 288 294 287 291 288 263 271 320 262 268 260 267 268 248 193 218 242 242 258 206 215 236 239
337 340 341 337 338 338 340 340 338 339 340 342 345 335 325 312 328 290 248 274 305 308 321 313 308 303 294 293 291 282 277 286 285 299 276 270 258 263 184 212 232 206 233 236 262 230 250
339 338 339 339 346 356 350 347 344 342 341 348 339 310 308 304 297 254 278 320 327 299 303 297 293 289 291 302 296 289 283 281 352 321 301 284 296 256 250 252 345 301 274 245 238 240 242
339 340 337 340 346 344 345 344 347 348 345 344 331 298 359 37 302 311 295 302 299 291 292 297 302 302 306 307 307 299 342 337 343 358 337 5 276 268 261 258 223 233 251 249 254 177 241
345 345 345 349 341 338 338 338 345 343 340 350 337 308 301 318 303 294 301 305 301 300 295 289 305 302 296 292 292 292 304 300 272 281 288 272 239 296 292 301 318 289 250 243 226 250 258
353 356 352 346 341 339 340 340 338 341 340 351 354 335 326 305 319 331 317 301 296 290 305 296 286 278 290 299 307 298 308 314 306 295 282 272 276 295 300 335 330 294 290 241 224 233 239
357 350 345 343 344 343 347 348 342 339 345 357 341 328 335 297 290 304 312 309 305 304 315 293 274 290 288 293 291 294 307 299 307 328 312 225 275 285 292 305 296 292 294 312 298 265 240
1 2 5 2 359 1 356 351 346 345 348 327 304 318 298 297 308 311 306 314 307 313 314 274 290 302 302 291 310 295 290 280 262 265 273 273 273 271 269 266 282 264 307 304 53 41 345
5 6 4 2 360 355 348 344 338 336 336 323 309 308 264 286 302 305 312 304 311 314 305 302 290 285 287 309 303 288 268 257 257 256 253 248 253 250 283 277 255 55 36 66 86 50 41
3 3 2 0 355 349 344 341 338 334 330 320 305 284 265 289 305 301 321 313 305 299 294 302 299 299 307 322 299 296 286 254 247 236 238 229 255 272 252 276 128 102 28 11 359 54 24
358 359 355 350 346 344 342 342 343 341 330 310 295 286 273 292 266 317 307 304 300 319 316 326 313 301 301 268 266 267 295 301 239 108 64 122 276 254 281 284 287 30 333 331 313 126 21
350 344 342 341 338 337 331 330 328 323 317 310 289 289 264 261 284 329 322 322 310 316 293 309 346 299 213 264 278 254 279 334 316 352 351 181 220 232 258 259 93 347 314 309 220 27 12
345 341 337 336 335 334 328 327 327 320 301 292 289 289 262 270 291 292 314 328 333 347 314 328 318 142 278 264 285 324 299 42 59 47 7 25 331 24 315 298 141 355 17 37 345 26 16
346 345 344 341 342 347 345 339 335 335 327 291 287 291 279 267 275 294 294 342 349 334 308 309 293 293 325 321 351 319 326 354 17 79 28 63 10 9 16 77 54 29 39 35 27 25 17